Погода в Уральске

Погода в Уральске : погода сейчас, прогноз погоды и архив. Всё, что Вы хотите узнать о погоде в Уральске!

Хотите узнать прогноз погоды в Уральске? Тогда Вам сюда: Погода в Уральске

Поиск расширенной информации на нашем сайте:

Другие новости

Новости СМИ2

Главная страница сайта

Новости сайта

02.10.2013

Напоминаем, что на нашем новом сайте вы можете получить высокодетализированные прогнозы погоды по пунктам России, СНГ и мира (включающие важные для авиации метеовеличины, такие как направление и скорость ветра, видимость, явления погоды, количество и форма облачности, нижняя и верхняя граница облачности), а также ознакомиться с разнообразными материалами по авиационной метеорологии и подборкой полезных ссылок на эту тему.

Сайт Метеоцентр.Азия посвящён разработке технологий оптимизации авиаметеорологического обслуживания, включая проектирование и перспективное создание нескольких автоматизированных авиаметеорологических систем:
- система выпуска высокодетальных прогностических карт явлений погоды для нижнего воздушного пространства по России и ближнему зарубежью;
- система верификации прогнозов TAF (выпускаемых синоптиками официальных АМСГ РФ и ближнего зарубежья) и AUTOTAF (выпускаемых сайтом Метеоцентр.Азия) - выявление ошибок, онлайн-сопоставление с фактической погодой METAR, автоматическое внесение коррективов в прогнозы при резком отклонении фактической погоды от прогноза, подсчёт оправдываемости прогнозов по элементам и в целом;
- система обработки, анализа и отображения авиаметеорологической информации для применения провайдерами метеорологической информации.


Погода в Уральске - сегодня

Время (UTC), дата Ветер
(°,м/с) 
Видим.   Явления Облачность Т
(°С)
Тd
(°С)
f(%) Тe
(°С)
Pmin
(гПа)
dP
(гПа)
Po
(мм)
O2
(г/м3)
Тmin Tmax R s Состояние
почвы
18 17.01.17 тихо ()   н/о    ясно 
-21.4 -23.7 82 -21  1033.4  -0.4  771  339    -12.5       
21 17.01.17 тихо ()   н/о    6/0 верхняя 
[Ci fib]
-22.2 -24.3 83 -22  1033.5  0.1  771  340           
00 18.01.17 тихо ()   н/о    10/0 верхняя 
[Ci fib]
-21.5 -23.6 83 -22  1032.9  -0.6  771  339           
03 18.01.17 тихо ()   н/о    8/0 верхняя 
[Ci fib]
-22.6 -24.8 82 -23  1032.8  -0.1  771  340        21  равномерный
сухой снег
100% 
06 18.01.17 340 (С) 10 км    9/0 средняя, верхняя 
[Ac und|Ci fib]
-21.9 -24 83 -22  1033.2  0.4  771  340  -23         
09 18.01.17 290 (З) 10 км    8/0 верхняя 
[Cs]
-18.3 -21.2 78 -19  1032.8  -0.3  771  335           
12 18.01.17 290 (З) 10 км    6/0 верхняя 
[Cs]
-16.6 -20 75 -17  1032.9  0.1  771  332           
15 18.01.17 тихо ()   н/о    3/0 верхняя 
[Ci fib]
-20.8 -23.2 81 -21  1032.8  -0.2  771  338    -16.4       
18 18.01.17 270 (З) н/о    8/0 верхняя 
[Cs]
-19.7 -22 82 -20  1033.1  0.3  771  337    -16.4       
21 18.01.17 250 (З) н/о    8/0 верхняя 
[Cs]
-19.9 -22.2 82 -20  1032.2  -0.9  770  336           
00 19.01.17 270 (З) н/о  {снег}  6/0 верхняя 
[Cs]
-19.8 -21.9 83 -20  1032.1  770  336           
03 19.01.17 270 (З) н/о    3/0 средняя 
[Ac trans]
-17.5 -19.7 83 -18  1031.4  -0.7  770  333      0.0  21  равномерный
сухой снег
100% 
06 19.01.17 тихо ()   10 км  слаб. снег  10/0 средняя 
[As op]
-17.5 -19.1 87 -18  1031.5  0.1  770  333  -21.5    0.0     
09 19.01.17 200 (Ю) 10 км  в посл. час снег  4/0 верхняя 
[Ci fib]
-11.5 -14.4 79 -11  1030.7  -0.7  769  325           
12 19.01.17 тихо ()   10 км  {снег}  ясно 
-11.9 -16.3 70 -12  1030  -0.7  769  325           
18 19.01.17 170 (Ю) н/о  дымка  10/0 средняя 
[Ac As]
-14.1 -15.4 90 -16  1027.4  -1.6  767  327    -11.5  0.2     
21 19.01.17 170 (Ю) н/о    8/0 верхняя 
[Ci fib]
-15.2 -16.9 87 -19  1025.4  -2  765  328           
00 20.01.17 150 (ЮВ) н/о    10/0 средняя 
[Ac As]
-15.8 -17.3 88 -20  1024  -1.4  764  328           
03 20.01.17 170 (Ю) н/о    10/0 средняя 
[Ac As]
-12 -13.6 88 -16  1021.1  -2.8  762  323        21  равномерный
сухой снег
100% 
06 20.01.17 190 (Ю) 10 км    10/6 600 м средняя 
[Sc|Ac und]
-11 -13.5 82 -16  1018.6  -2.5  760  320  -17.4         
09 20.01.17 180 (Ю) 4000 м  слаб. снег  10/10 600 м 
[Ns]
-10.6 -12.9 83 -17  1015.6  -3  758  319           
12 20.01.17 250 (З) 2000 м  слаб. снег  10/10 600 м 
[Ns]
-8.1 -9.9 87 -14  1012.9  -2.6  756  315           
15 20.01.17 190 (Ю) н/о  слаб. снег  10/10 600 м 
[Ns]
-7.9 -9.3 90 -14  1011.3  -1.6  755  314    -7.9     
18 20.01.17 230 (ЮЗ) н/о  позёмок{снег} [диам. гололёда <0.1 мм]  10/10 600 м 
[Sc]
-7.2 -9.3 85 -11  1010.9  -0.4  755  313    -7.9     
21 20.01.17 230 (ЮЗ) н/о  слаб. снег [диам. гололёда <0.1 мм]  10/10 600 м 
[Ns]
-6.8 -9.3 82 -10  1010.7  -0.2  755  313           
Время (UTC), дата Ветер
(°,м/с) 
Видим.   Явления Облачность Т
(°С)
Тd
(°С)
f(%) Тe
(°С)
Pmin
(гПа)
dP
(гПа)
Po
(мм)
O2
(г/м3)
Тmin Tmax R s Состояние
почвы

Для получения пояснительной информации подведите курсор к названию столбца.

ПОГОДА в Уральске - архив

Всё, что Вы хотите узнать о погоде в Уральске - удобно и подробно!

Выберите нужную дату (начиная с 1 января 2015* года) и нажмите кнопку "Найти".
Будут отображены архивные сводки погоды по пункту Уральск, начиная с указанной даты.


Отображать данные в формате CSV (для использования в таблицах Excel)


Внимание! Наш архив погоды предназначен исключительно для личного некоммерческого использования в познавательных целях. Если Вам необходимы официальные справки о состоянии погоды (для производственных, юридических, коммерческих и т.п. целей), обращайтесь в органы Росгидромета.

*Примечание: данная дата относится к архиву по метеостанциям СССР (Россия, СНГ, Балтия).
Архив по метеостанциям Зарубежной Европы и Азии (кроме Китая) хранится 10 дней, по другим регионам земного шара (Китай, Африка, Америка, Австралия, Океания) - 1 день.

Уральск - район местоположения метеостанции


Название, широта, долгота, высота метеостанции:
Уральск (город) 51.2°ш. 51.3°д. 37 м над ур. моря [Казахстан]

Дополнительная информация

В oтличие oт бoльшинства пoгoдных сайтoв мы публикуем пoдрoбную метеoинфoрмацию в детальнoм прoфессиoнальнoм фoрмате.

Характеристики температуры и влажнoсти вoздуха измеряются на высoте 2 м в тени вдали oт зданий и деревьев.
Скoрoсть ветра измеряется на высoте 10 м (на урoвне рoста челoвека скoрoсть ветра ниже в 1.5-2 раза). Если метеoстанция нахoдится в гoрoде или в лесу, тo скoрoсть ветра занижена на 2-4 м/с пo сравнению с oткрытым местoм. Скoрoсть ветра над акватoриями крупных рек и oзёр, а также на вершинах хoлмoв на 2-5 м/с выше, чем в oбычных услoвиях.
Атмoсфернoе давление в разных тoчках местнoсти мoжет значительнo oтличаться oт давления на метеoстанции, в зависимoсти oт услoвий рельефа (при пoдъёме на 10 м давление пoнижается примернo на 1 мм рт.ст.).